AP893 Weather Reports


time (UTC)temp
C
wind
direction
speed
KPH
gust
KPH
rain 1hr
cm
rain 24hr
cm
rain mn
cm
humidity
%
barometer
mb
20260902162009 18 121 0.0 0.0 0.00 0.00 0.00 47 1019.9
20260902161010 17 121 0.0 8.0 0.00 0.00 0.00 50 1019.9
20260902160010 16 146 1.6 9.7 0.00 0.00 0.00 54 1019.9
20260902155009 15 140 0.0 0.0 0.00 0.00 0.00 60 1019.9
20260902154009 14 140 1.6 8.0 0.00 0.00 0.00 65 1019.9
20260902152009 12 55 0.0 0.0 0.00 0.00 0.00 76 1019.9
20260902151009 12 55 1.6 4.8 0.00 0.00 0.00 81 1019.7
20260902150010 11 344 0.0 0.0 0.00 0.00 0.00 89 1019.7
20260902145009 10 344 0.0 0.0 0.00 0.00 0.00 93 1019.6
20260902144009 10 344 0.0 0.0 0.00 0.00 0.00 95 1019.6
20260902143009 8 344 0.0 0.0 0.00 0.00 0.00 96 1019.3
20260902141009 8 344 0.0 0.0 0.00 0.00 0.00 95 1018.9
20260902140012 8 344 0.0 0.0 0.00 0.00 0.00 94 1019.0
20260902135009 8 344 0.0 0.0 0.00 0.00 0.00 94 1018.8
20260902132009 8 344 0.0 0.0 0.00 0.00 0.00 93 1018.4
20260902131009 8 344 0.0 0.0 0.00 0.00 0.00 93 1018.4
20260902130009 8 344 0.0 0.0 0.00 0.00 0.00 93 1018.3
20260902125009 8 344 0.0 0.0 0.00 0.00 0.00 92 1018.3
20260902124010 8 344 0.0 0.0 0.00 0.00 0.00 92 1018.4
20260902123009 8 344 0.0 0.0 0.00 0.00 0.00 92 1018.4
20260902122009 8 344 0.0 0.0 0.00 0.00 0.00 92 1018.4
20260902121009 8 344 0.0 0.0 0.00 0.00 0.00 92 1018.4
20260902120009 8 344 0.0 0.0 0.00 0.00 0.00 91 1018.4
20260902115009 8 344 0.0 0.0 0.00 0.00 0.00 91 1018.5
20260902114010 8 344 0.0 0.0 0.00 0.00 0.00 91 1018.6
20260902113010 8 344 0.0 0.0 0.00 0.00 0.00 90 1018.8
20260902112009 9 344 0.0 0.0 0.00 0.00 0.00 90 1018.8
20260902111009 9 344 0.0 0.0 0.00 0.00 0.00 90 1018.8
20260902104010 10 344 0.0 0.0 0.00 0.00 0.00 87 1018.9
20260902102010 10 344 0.0 0.0 0.00 0.00 0.00 85 1018.8
20260902101010 10 344 0.0 0.0 0.00 0.00 0.00 84 1018.8
20260902100011 10 344 0.0 0.0 0.00 0.00 0.00 84 1018.8
20260902070010 11 344 0.0 0.0 0.00 0.00 0.00 81 1019.2
20260902065010 12 344 0.0 0.0 0.00 0.00 0.00 80 1019.2
20260902062009 12 344 0.0 0.0 0.00 0.00 0.00 76 1019.3
20260902061010 12 344 0.0 0.0 0.00 0.00 0.00 75 1019.3
20260902060009 12 344 0.0 0.0 0.00 0.00 0.00 73 1019.3
20260902054009 12 344 0.0 1.6 0.00 0.00 0.00 73 1019.5
20260902053010 12 344 0.0 0.0 0.00 0.00 0.00 71 1019.5
20260902052010 12 344 0.0 0.0 0.00 0.00 0.00 69 1019.5
20260902051010 13 344 0.0 0.0 0.00 0.00 0.00 67 1019.5
20260902050010 13 344 0.0 0.0 0.00 0.00 0.00 65 1019.4
20260902045009 13 344 0.0 0.0 0.00 0.00 0.00 63 1019.3
20260902044009 13 344 0.0 0.0 0.00 0.00 0.00 61 1019.2
20260902043010 13 344 0.0 0.0 0.00 0.00 0.00 59 1019.1
20260902042009 14 344 0.0 0.0 0.00 0.00 0.00 56 1019.1
20260902041009 14 344 0.0 0.0 0.00 0.00 0.00 54 1019.0
20260902040009 15 344 0.0 0.0 0.00 0.00 0.00 53 1018.6
20260902034009 15 344 0.0 0.0 0.00 0.00 0.00 50 1018.6
20260902033010 16 344 0.0 0.0 0.00 0.00 0.00 49 1018.5
20260902032009 16 344 0.0 0.0 0.00 0.00 0.00 49 1018.4
20260902031009 16 344 0.0 0.0 0.00 0.00 0.00 48 1018.4
20260902030009 17 344 0.0 0.0 0.00 0.00 0.00 48 1018.4
20260902025010 17 344 0.0 0.0 0.00 0.00 0.00 47 1018.4
20260902023009 18 344 0.0 0.0 0.00 0.00 0.00 46 1018.2
20260902021009 18 344 0.0 0.0 0.00 0.00 0.00 44 1018.0
20260902020009 19 344 0.0 0.0 0.00 0.00 0.00 43 1017.9
20260902013010 20 311 0.0 9.7 0.00 0.00 0.00 41 1018.0
20260902012009 20 332 0.0 14.5 0.00 0.00 0.00 40 1018.0
20260902011009 20 8 3.2 11.3 0.00 0.00 0.00 39 1018.1
20260902010009 21 287 1.6 16.1 0.00 0.00 0.00 38 1018.1
20260902003010 22 0 3.2 11.3 0.00 0.00 0.00 36 1018.1
20260902001009 23 250 0.0 9.7 0.00 0.00 0.00 34 1018.3
20260902000009 23 271 0.0 14.5 0.00 0.00 0.00 33 1018.4
20260901235009 23 239 1.6 16.1 0.00 0.00 0.00 33 1018.5
20260901233010 23 229 0.0 8.0 0.00 0.00 0.00 33 1018.5
20260901232009 23 289 1.6 12.9 0.00 0.00 0.00 32 1018.5
20260901231009 23 282 0.0 12.9 0.00 0.00 0.00 32 1018.6
20260901230010 23 114 1.6 9.7 0.00 0.00 0.00 34 1018.5
20260901225010 23 347 3.2 14.5 0.00 0.00 0.00 35 1018.6
20260901224010 22 297 1.6 19.3 0.00 0.00 0.00 35 1018.6
20260901223010 22 311 0.0 12.9 0.00 0.00 0.00 36 1018.6
20260901222010 22 16 1.6 14.5 0.00 0.00 0.00 36 1018.8
20260901220009 23 123 4.8 14.5 0.00 0.00 0.00 34 1018.9
20260901215010 23 0 3.2 22.5 0.00 0.00 0.00 34 1019.0
20260901214009 23 255 3.2 20.9 0.00 0.00 0.00 34 1019.0
20260901213009 23 5 1.6 11.3 0.00 0.00 0.00 35 1019.0
20260901212010 23 209 8.0 19.3 0.00 0.00 0.00 34 1018.9
20260901211010 23 253 0.0 14.5 0.00 0.00 0.00 33 1019.0
20260901210010 23 73 3.2 12.9 0.00 0.00 0.00 33 1018.9
20260901205010 24 347 4.8 16.1 0.00 0.00 0.00 28 1018.9
20260901204009 25 321 4.8 16.1 0.00 0.00 0.00 28 1018.8
20260901203010 25 143 4.8 14.5 0.00 0.00 0.00 28 1018.8
20260901202010 25 170 3.2 14.5 0.00 0.00 0.00 27 1018.8
20260901201009 25 295 1.6 14.5 0.00 0.00 0.00 28 1018.8
20260901200011 24 341 1.6 12.9 0.00 0.00 0.00 28 1019.0
20260901193009 24 312 1.6 11.3 0.00 0.00 0.00 29 1019.2
20260901192009 23 13 0.0 14.5 0.00 0.00 0.00 29 1019.2
20260901191009 23 185 1.6 14.5 0.00 0.00 0.00 31 1019.2
20260901185010 21 250 3.2 14.5 0.00 0.00 0.00 44 1019.3
20260901184009 21 16 4.8 14.5 0.00 0.00 0.00 46 1019.2
20260901182010 20 354 3.2 14.5 0.00 0.00 0.00 51 1019.2
20260901181009 19 221 3.2 19.3 0.00 0.00 0.00 54 1019.2
20260901180009 18 335 0.0 16.1 0.00 0.00 0.00 56 1019.1
20260901175010 18 326 3.2 19.3 0.00 0.00 0.00 58 1019.2
20260901174010 17 1 12.9 20.9 0.00 0.00 0.00 60 1019.0
20260901173010 17 1 3.2 20.9 0.00 0.00 0.00 62 1018.9
20260901172010 17 41 4.8 12.9 0.00 0.00 0.00 63 1018.9
20260901170011 16 328 9.7 22.5 0.00 0.00 0.00 64 1018.8
20260901165009 16 353 8.0 20.9 0.00 0.00 0.00 64 1018.6
20260901163009 16 313 1.6 12.9 0.00 0.00 0.00 65 1018.4